Location: Newark
(40.7119°N, 74.0097°W)
Time: 07:42:16
(UTC+00:00)

ISS - Pass Details

Date: 29 June 2021
Orbit: 419 x 421 km, 51.6° (Epoch: 04 August)

Event Time Altitude Azimuth Distance (km) Brightness Sun altitude
Exits shadow 08:28:10 13° 250° (WSW) 1,339 -1.8 -9.8°
Maximum altitude 08:31:04 54° 327° (NNW) 516 -3.3 -9.4°
Drops below altitude 10° 08:34:23 10° 46° (NE) 1,502 0.8 -8.9°
Sets 08:36:31 0° 51° (NE) 2,368 2.6 -8.6°
